[[{"header":{"parameterUnit":"m.s-1","parameterCategory":1,"la1":30.2991,"la2":30.254,"lo1":-89.0895,"lo2":-89.0444,"dy":0.0017,"dx":0.0017,"nx":28,"ny":28,"refTime":"2024-10-10T09:00:00:Z","depth":0,"parameterNumber":2,"parameterNumberName":"U-component_of_WINDS"},"data":[0,0,0,0,0,0,0,0,0,0,0,0,0,0,0,0,0,0,0,0,0,0,0,0,0,0,0,0,0,0,0,0,0,0,0,0,0,0,0,0,0,0,0,0,0,0,0,0,0,0,0,0,0,0,0,0,0,0,-0.0726,-0.0726,0,-0.0777,-0.0778,-0.0778,-0.0763,-0.0762,-0.0761,-0.076,-0.0815,-0.0818,-0.082,0,0,0,0,0,0,0,0,0,0,0,0,0,-0.0615,-0.0618,-0.0726,-0.0726,-0.0727,-0.0777,-0.0778,-0.0779,-0.0763,-0.0762,-0.0761,-0.076,-0.0814,-0.0817,-0.082,0,0,0,0,0,0,0,0,0,0,0,0,0,-0.0665,-0.0618,-0.0726,-0.0725,-0.0726,-0.0777,-0.0778,-0.0779,-0.0764,-0.0762,-0.076,-0.0759,-0.0813,-0.0817,-0.0821,-0.0876,0,0,-0.0832,-0.0834,0,0,0,0,0,0,0,0,-0.0662,-0.0669,-0.0725,-0.0725,-0.0726,-0.0762,-0.0759,-0.0811,-0.0764,-0.0749,-0.076,-0.0758,-0.0799,-0.0804,-0.0817,-0.0878,-0.0881,-0.0832,-0.0834,-0.0836,-0.0837,0,0,0,0,0,0,0,-0.0659,-0.0667,-0.0746,-0.0726,-0.0726,-0.0723,-0.0728,-0.0769,-0.0783,-0.0751,-0.075,-0.0756,-0.0799,-0.0814,-0.0818,-0.0882,-0.0832,-0.0835,-0.0838,-0.0839,-0.0991,-0.0992,0,0,0,0,0,0,-0.0655,-0.0664,-0.0745,-0.0748,-0.0689,-0.0727,-0.0732,-0.0752,-0.0782,-0.0785,-0.0757,-0.0755,-0.0808,-0.0814,-0.082,-0.0887,-0.0836,-0.084,-0.0842,-0.0989,-0.0991,-0.0993,0,0,0,0,0,0,-0.0652,-0.0662,-0.0742,-0.0706,-0.0716,-0.073,-0.0753,-0.0754,-0.0769,-0.0787,-0.079,-0.0769,-0.0807,-0.0815,-0.0862,-0.0889,-0.0841,-0.0845,-0.0987,-0.099,-0.0992,-0.1022,0,0,0,0,0,0,-0.0649,-0.0661,-0.0682,-0.0706,-0.0718,-0.0783,-0.0754,-0.0756,-0.0775,-0.0772,-0.0799,-0.0802,-0.0806,-0.0856,-0.0866,-0.0893,-0.0847,-0.0985,-0.0988,-0.0991,-0.1018,-0.1025,-0.1031,0,0,0,0,0,-0.0645,-0.0689,-0.0683,-0.0693,-0.0744,-0.0785,-0.0791,-0.0795,-0.0777,-0.0798,-0.081,-0.0801,-0.0884,-0.0861,-0.0872,-0.0901,-0.0983,-0.0987,-0.0991,-0.1016,-0.1024,-0.1031,0,0,0,0,0,0,-0.0669,-0.0692,-0.0686,-0.0739,-0.076,-0.0782,-0.0809,-0.0803,-0.083,-0.0827,-0.083,-0.0836,-0.0885,-0.0897,-0.0872,-0.0956,-0.0931,-0.0937,-0.0946,-0.0954,-0.096,-0.0957,-0.0851,0,0,0,0,0,-0.068,-0.071,-0.0729,-0.0774,-0.0784,-0.0795,-0.0813,-0.0813,-0.0836,-0.0845,-0.086,-0.0883,-0.0914,-0.0934,-0.0964,-0.1019,-0.1025,-0.1044,-0.105,-0.1055,-0.1061,-0.1092,-0.1101,-0.1006,-0.1006,-0.1006,0,0,-0.0703,-0.072,-0.0739,-0.0779,-0.0795,-0.0828,-0.0803,-0.0838,-0.0862,-0.085,-0.0896,-0.0908,-0.0933,-0.0985,-0.1008,-0.0996,-0.1088,-0.106,-0.1064,-0.1068,-0.1097,-0.1106,-0.1114,-0.1009,-0.1009,-0.1008,0,0,-0.0763,-0.0778,-0.0817,-0.0834,-0.0858,-0.0865,-0.0874,-0.0897,-0.0905,-0.095,-0.0942,-0.097,-0.1024,-0.1042,-0.1059,-0.1124,-0.1117,-0.1133,-0.1167,-0.1196,-0.1204,-0.1211,-0.1235,-0.1244,-0.1139,-0.1139,-0.1139,0,-0.079,-0.0838,-0.0838,-0.0874,-0.0892,-0.0881,-0.0921,-0.0937,-0.0971,-0.0984,-0.097,-0.1036,-0.1052,-0.1108,-0.1124,-0.1137,-0.1149,-0.1131,-0.1203,-0.1209,-0.1216,-0.1239,-0.1248,-0.1141,-0.1141,-0.114,-0.114,0,-0.0869,-0.0903,-0.0931,-0.0963,-0.0984,-0.1022,-0.1028,-0.1049,-0.1047,-0.1055,-0.1102,-0.112,-0.1154,-0.1167,-0.1166,-0.1223,-0.1215,-0.1201,-0.1177,-0.1227,-0.1249,-0.1257,-0.1144,-0.1143,-0.1142,-0.1142,0,0,-0.0948,-0.0978,-0.0989,-0.1003,-0.1029,-0.1055,-0.1092,-0.1123,-0.1142,-0.1165,-0.1197,-0.1241,-0.1229,-0.1248,-0.1248,-0.1274,-0.1326,-0.1258,-0.1258,-0.1271,-0.1391,-0.1402,-0.1412,-0.132,-0.1322,-0.1323,-0.1389,0,-0.1011,-0.1076,-0.1077,-0.1136,-0.1168,-0.1157,-0.1189,-0.1209,-0.1217,-0.1245,-0.1254,-0.1286,-0.1267,-0.1278,-0.1303,-0.1314,-0.135,-0.1309,-0.1351,-0.1353,-0.1347,-0.1424,-0.1435,-0.1497,-0.1398,-0.1399,-0.14,0,-0.1094,-0.1119,-0.1181,-0.1202,-0.1215,-0.1245,-0.1274,-0.13,-0.1322,-0.1326,-0.1346,-0.1342,-0.138,-0.1353,-0.1406,-0.1378,-0.1395,-0.1403,-0.1405,-0.1411,-0.1381,-0.1433,-0.1516,-0.1526,-0.1413,-0.1412,-0.1411,0,-0.1146,-0.1195,-0.1239,-0.1251,-0.1277,-0.1297,-0.1309,-0.1329,-0.1348,-0.1373,-0.1386,-0.1415,-0.1432,-0.1455,-0.1459,-0.1439,-0.1513,-0.1486,-0.1518,-0.1518,-0.1536,-0.1535,-0.1625,-0.1544,-0.1544,-0.1544,-0.1543,0,-0.1218,-0.1257,-0.1263,-0.129,-0.1334,-0.1334,-0.1377,-0.1387,-0.1405,-0.1434,-0.1427,-0.1454,-0.1458,-0.1487,-0.149,-0.1534,-0.1541,-0.1546,-0.1547,-0.1548,-0.1548,-0.1561,-0.1557,-0.1546,-0.1546,-0.1545,-0.1545,0,-0.1284,-0.129,-0.1337,-0.1357,-0.1363,-0.1394,-0.1411,-0.1437,-0.1444,-0.1481,-0.149,-0.15,-0.1534,-0.154,-0.1579,-0.1582,-0.1635,-0.163,-0.1627,-0.1627,-0.166,-0.1658,-0.1763,-0.1777,-0.1685,-0.1686,-0.1687,0,-0.1331,-0.1361,-0.1383,-0.1402,-0.1414,-0.1444,-0.1463,-0.1464,-0.1485,-0.1511,-0.1534,-0.1567,-0.1593,-0.1647,-0.1658,-0.1688,-0.1686,-0.172,-0.1691,-0.1691,-0.1688,-0.1687,-0.169,-0.1727,-0.1728,-0.1729,-0.173,0,-0.1413,-0.1414,-0.1441,-0.1469,-0.1492,-0.1514,-0.1535,-0.1551,-0.1555,-0.1578,-0.1612,-0.1632,-0.1672,-0.1704,-0.1734,-0.1746,-0.1739,-0.1738,-0.1748,-0.175,-0.1748,-0.1751,-0.1645,-0.1737,-0.1736,-0.1735,-0.1735,-0.1735,-0.1472,-0.1498,-0.1518,-0.1548,-0.1564,-0.1584,-0.161,-0.1619,-0.1646,-0.1679,-0.1677,-0.1715,-0.1735,-0.1774,-0.1788,-0.1818,-0.1807,-0.182,-0.1824,-0.1827,-0.1831,-0.1741,-0.1823,-0.1823,-0.1822,-0.1822,-0.1822,0,-0.1555,-0.1567,-0.1594,-0.1624,-0.1648,-0.1637,-0.166,-0.1681,-0.1714,-0.1733,-0.1759,-0.1797,-0.1829,-0.1842,-0.1873,-0.1894,-0.1891,-0.1902,-0.1901,-0.1904,-0.1839,-0.1828,-0.1903,-0.1903,-0.1903,-0.1903,-0.1903,-0.1903,-0.1601,-0.1645,-0.1648,-0.1699,-0.1711,-0.1747,-0.1761,-0.1779,-0.1794,-0.1838,-0.1863,-0.1871,-0.1888,-0.192,-0.1948,-0.1951,-0.1964,-0.1976,-0.1978,-0.1917,-0.1909,-0.1901,-0.1891,-0.1979,-0.1979,-0.2042,-0.2042,-0.2043]},{"header":{"parameterUnit":"m.s-1","parameterCategory":1,"la1":30.2991,"la2":30.254,"lo1":-89.0895,"lo2":-89.0444,"dy":0.0017,"dx":0.0017,"nx":28,"ny":28,"refTime":"2024-10-10T09:00:00:Z","depth":0,"parameterNumber":3,"parameterNumberName":"V-component_of_WINDS"},"data":[0,0,0,0,0,0,0,0,0,0,0,0,0,0,0,0,0,0,0,0,0,0,0,0,0,0,0,0,0,0,0,0,0,0,0,0,0,0,0,0,0,0,0,0,0,0,0,0,0,0,0,0,0,0,0,0,0,0,-4.7898,-4.7898,0,-4.7981,-4.7982,-4.7983,-4.7914,-4.7911,-4.7908,-4.7906,-4.7986,-4.7991,-4.7996,0,0,0,0,0,0,0,0,0,0,0,0,0,-4.7673,-4.7678,-4.7897,-4.7898,-4.79,-4.7981,-4.7982,-4.7983,-4.7915,-4.7911,-4.7907,-4.7904,-4.7985,-4.7991,-4.7996,0,0,0,0,0,0,0,0,0,0,0,0,0,-4.7765,-4.7679,-4.7897,-4.7875,-4.7874,-4.7981,-4.7982,-4.7984,-4.7915,-4.7911,-4.7907,-4.7903,-4.7983,-4.799,-4.7997,-4.8129,0,0,-4.8019,-4.8022,0,0,0,0,0,0,0,0,-4.776,-4.7773,-4.7877,-4.7877,-4.7876,-4.7933,-4.7933,-4.8032,-4.7916,-4.7899,-4.7905,-4.79,-4.7972,-4.798,-4.8005,-4.8132,-4.8136,-4.802,-4.8024,-4.8027,-4.803,0,0,0,0,0,0,0,-4.7754,-4.7769,-4.793,-4.7879,-4.7878,-4.7859,-4.7868,-4.7951,-4.7959,-4.7901,-4.7896,-4.7907,-4.797,-4.7998,-4.8006,-4.8137,-4.802,-4.8026,-4.8031,-4.8034,-4.8376,-4.838,0,0,0,0,0,0,-4.775,-4.7764,-4.7928,-4.7933,-4.7806,-4.7867,-4.7876,-4.7919,-4.7958,-4.7959,-4.7911,-4.7903,-4.7988,-4.7998,-4.8009,-4.8165,-4.8027,-4.8034,-4.8038,-4.8371,-4.8377,-4.8382,0,0,0,0,0,0,-4.7746,-4.7765,-4.7924,-4.7847,-4.7866,-4.7876,-4.7924,-4.7923,-4.795,-4.7965,-4.7966,-4.7938,-4.7985,-4.7998,-4.8099,-4.8167,-4.8037,-4.8044,-4.8365,-4.8373,-4.8379,-4.8479,0,0,0,0,0,0,-4.7739,-4.7764,-4.7815,-4.7849,-4.7871,-4.8016,-4.7928,-4.7927,-4.7963,-4.7955,-4.7991,-4.7992,-4.7982,-4.8089,-4.8107,-4.8174,-4.805,-4.8359,-4.8369,-4.8377,-4.8469,-4.8488,-4.8504,0,0,0,0,0,-4.7732,-4.7839,-4.7818,-4.7838,-4.7935,-4.802,-4.8032,-4.8019,-4.7969,-4.802,-4.8029,-4.7991,-4.8157,-4.81,-4.8119,-4.819,-4.8355,-4.8366,-4.8376,-4.8461,-4.8484,-4.8504,0,0,0,0,0,0,-4.7811,-4.7843,-4.7821,-4.7942,-4.7979,-4.8008,-4.8072,-4.8044,-4.8094,-4.8084,-4.8065,-4.8074,-4.818,-4.8195,-4.8131,-4.8319,-4.8247,-4.8263,-4.8306,-4.8328,-4.8345,-4.8339,-4.8056,0,0,0,0,0,-4.7843,-4.7911,-4.7934,-4.8039,-4.8059,-4.8063,-4.8099,-4.8086,-4.8123,-4.8137,-4.8154,-4.819,-4.8249,-4.8289,-4.8345,-4.8471,-4.8477,-4.8529,-4.8547,-4.8561,-4.8574,-4.8641,-4.8664,-4.8417,-4.8417,-4.8417,0,0,-4.7909,-4.7935,-4.7979,-4.8056,-4.8083,-4.8152,-4.8076,-4.8152,-4.8202,-4.8148,-4.8245,-4.8259,-4.8297,-4.8411,-4.8462,-4.8427,-4.8644,-4.8574,-4.8586,-4.8591,-4.8655,-4.8678,-4.8699,-4.8424,-4.8423,-4.8422,0,0,-4.8066,-4.8092,-4.8183,-4.8212,-4.8254,-4.8256,-4.8277,-4.8311,-4.8318,-4.8415,-4.8376,-4.8435,-4.8539,-4.8567,-4.8596,-4.8763,-4.8729,-4.8781,-4.8873,-4.8938,-4.8958,-4.8975,-4.9034,-4.9056,-4.8794,-4.8795,-4.8795,0,-4.8142,-4.8246,-4.8232,-4.8312,-4.8346,-4.8302,-4.8393,-4.8421,-4.8479,-4.8503,-4.8463,-4.8592,-4.8614,-4.8735,-4.8776,-4.88,-4.8823,-4.8777,-4.8956,-4.8974,-4.8989,-4.9046,-4.9068,-4.8801,-4.88,-4.8799,-4.8799,0,-4.8338,-4.8411,-4.8478,-4.8537,-4.8579,-4.8664,-4.8661,-4.8705,-4.8689,-4.8694,-4.8793,-4.8819,-4.8879,-4.8907,-4.8891,-4.9025,-4.9001,-4.8959,-4.8887,-4.9019,-4.9072,-4.9093,-4.8809,-4.8807,-4.8805,-4.8804,0,0,-4.8546,-4.8597,-4.8622,-4.8648,-4.8692,-4.8747,-4.8829,-4.8889,-4.8927,-4.8968,-4.9036,-4.9124,-4.9086,-4.9118,-4.9105,-4.9163,-4.9293,-4.9113,-4.9114,-4.9146,-4.9441,-4.9473,-4.9498,-4.9271,-4.9275,-4.9278,-4.9438,0,-4.8704,-4.8849,-4.8839,-4.8975,-4.9041,-4.9,-4.9071,-4.9105,-4.9112,-4.9167,-4.9174,-4.9238,-4.9182,-4.9201,-4.9256,-4.9266,-4.9352,-4.9254,-4.9332,-4.9335,-4.9324,-4.9526,-4.9559,-4.9709,-4.9458,-4.9462,-4.9464,0,-4.8908,-4.8958,-4.9101,-4.9135,-4.9162,-4.9227,-4.9281,-4.9336,-4.9372,-4.9373,-4.9409,-4.9386,-4.9467,-4.9394,-4.9504,-4.9438,-4.9469,-4.9478,-4.9484,-4.949,-4.9408,-4.9538,-4.9756,-4.9779,-4.9497,-4.9494,-4.9492,0,-4.9046,-4.9149,-4.9248,-4.9271,-4.9313,-4.9359,-4.9378,-4.941,-4.9447,-4.9494,-4.9518,-4.9573,-4.9603,-4.9646,-4.9638,-4.9585,-4.9751,-4.9676,-4.9753,-4.9753,-4.9789,-4.9787,-5.0016,-4.981,-4.981,-4.9809,-4.9809,0,-4.9223,-4.9312,-4.931,-4.9371,-4.9469,-4.9456,-4.9553,-4.9566,-4.9595,-4.9657,-4.9623,-4.9681,-4.9667,-4.9725,-4.9718,-4.9811,-4.9824,-4.9827,-4.9824,-4.983,-4.983,-4.985,-4.9839,-4.9815,-4.9814,-4.9813,-4.9812,0,-4.9394,-4.9396,-4.9501,-4.9532,-4.9542,-4.9613,-4.9639,-4.9695,-4.97,-4.9778,-4.9795,-4.9802,-4.9867,-4.9863,-4.9937,-4.9933,-5.0047,-5.0032,-5.0035,-5.0032,-5.0109,-5.0102,-5.0359,-5.0392,-5.0164,-5.0166,-5.0168,0,-4.9507,-4.9575,-4.9614,-4.9653,-4.9676,-4.974,-4.9778,-4.9767,-4.9808,-4.9855,-4.9905,-4.9968,-5.0018,-5.0124,-5.0134,-5.019,-5.0176,-5.0262,-5.0184,-5.0188,-5.0177,-5.0173,-5.018,-5.0278,-5.028,-5.0282,-5.0284,0,-4.9707,-4.9705,-4.9762,-4.9821,-4.9867,-4.9912,-4.9952,-4.9986,-4.9979,-5.0026,-5.0094,-5.0132,-5.0208,-5.0271,-5.0324,-5.0341,-5.0312,-5.0309,-5.0329,-5.0336,-5.0335,-5.0337,-5.0077,-5.0303,-5.0301,-5.03,-5.0299,-5.0298,-4.9853,-4.9911,-4.9948,-5.0012,-5.0042,-5.0081,-5.0136,-5.0148,-5.0204,-5.0266,-5.0256,-5.0331,-5.0365,-5.0434,-5.0457,-5.0515,-5.0483,-5.0513,-5.0521,-5.0529,-5.0537,-5.0326,-5.0524,-5.0524,-5.0523,-5.0523,-5.0522,0,-5.0051,-5.0073,-5.0133,-5.0192,-5.0242,-5.0211,-5.0254,-5.0298,-5.0366,-5.0401,-5.0451,-5.0528,-5.0588,-5.0604,-5.0661,-5.0705,-5.0692,-5.072,-5.0717,-5.0721,-5.0562,-5.0538,-5.0729,-5.0729,-5.0729,-5.0729,-5.0729,-5.0729,-5.0161,-5.0258,-5.026,-5.0371,-5.0392,-5.0467,-5.0494,-5.0529,-5.0557,-5.0646,-5.0697,-5.0707,-5.0733,-5.0792,-5.0846,-5.0849,-5.0871,-5.0905,-5.0902,-5.0753,-5.0732,-5.0712,-5.069,-5.091,-5.091,-5.1056,-5.1057,-5.1058]}]]